INMARSAT 2-F3

导读 | 豆包AI

INMARSAT 2-F3(国际海事卫星2-F3)由国际海事卫星组织(IM)主导,于1991年12月16日发射升空,属于第二代国际海事通信卫星系列。该卫星运行于地球静止轨道,主要为全球海事领域提供稳定的语音、数据通信服务,支撑海上船舶导航、遇险救援与航运管理,助力远洋航行安全与海事通信网络覆盖,服务全球海洋运输与应急通信需求,是早期全球海事卫星通信系统的重要组成部分。

Basic Information
目录编号:
21814
目录名称:
INMARSAT 2-F3
国际标识:
1991-084B
轨道中心:
EARTH
卫星名称:
INMARSAT 2-F3
卫星全名:
--
卫星状态:
在轨 (已飞行12507 天)
发射日期:
1991-12-16 UTC
国别 :
(Inmarsat)
星等 :
--
Orbit Information
数据来源 国际轨道数据 AOE轨道数据
星历时间 2026-03-14T04:50:31+0800
9小时前
查看轨道信息
2026-03-13T23:00:00+0800
14小时前
查看轨道信息
半长轴 43388.141km 43388.172km
偏心率 0.0011839 0.001181
轨道倾角 14.052° 14.051°
近地点辐角 66.142° 67.314°
升交点赤经 14.059° 14.060°
平近点角 109.668° 24.318°
近地点 36958.636km 36958.793km
远地点 37061.372km 37061.277km
周期 1499.051分钟 1499.052分钟
每日圈数 0.960608 0.960607
Detailed Information
使用方式:
暂无
2D Orbit Map
3D Orbit Map
Orbit Altitude Analysis Chart
Orbit Inclination Analysis Chart
Orbit Comprehensive Analysis Chart
View Comprehensive Chart